CAPE
0 0 0 0 0 0 0 0 0 0 0 0 0 0 0 0 0 0 0 0 0 0 0 0 8 37 88 78 75 30 3 1 3 12 54 185 442 704 793 808 850 938 1001 1160 1300 1540 2011 2290 2521 2695 2723 2616 2475 2457 2491 2484 2103 1406 365 346 339 206 274
0 0 0 0 0 0 0 0 0 0 0 0 0 0 0 0 0 0 0 0 0 0 0 0 22 26 50 86 58 52 44 1 3 11 9 57 325 595 735 800 839 879 966 1247 1338 1616 1987 2233 2444 2515 2488 2433 2372 2340 2322 2256 1892 1141 388 320 606 515 438
0 0 0 0 0 0 0 0 0 0 0 0 0 0 0 0 0 0 0 0 0 0 0 2 8 39 71 76 79 78 76 25 2 9 2 10 109 512 651 710 777 862 1014 1305 1371 1656 1966 2212 2395 2395 2374 2335 2302 2262 2121 1919 1553 867 584 410 446 805 691
0 0 0 0 0 0 0 0 0 0 0 0 0 0 0 0 0 0 0 0 0 0 0 0 15 60 75 97 90 88 62 7 1 1 4 7 80 448 615 706 758 808 1052 1369 1467 1692 1921 2162 2357 2325 2276 2244 2205 2124 1930 1685 1234 651 717 696 700 826 973
0 0 0 0 0 0 0 0 0 0 0 0 0 0 0 0 0 0 0 0 0 0 0 0 3 39 79 87 93 87 89 11 5 6 12 56 134 315 510 622 724 770 1128 1452 1586 1786 1935 2122 2309 2237 2173 2137 2080 1973 1863 1538 978 795 823 828 827 860 1043
0 0 0 0 0 0 0 0 0 0 0 0 0 0 0 0 0 0 0 0 0 0 0 0 7 57 62 92 93 82 88 96 78 76 75 96 154 264 428 556 651 751 1140 1497 1633 1868 1987 2154 2266 2192 2102 2038 1992 1843 1779 1580 901 806 811 927 896 954 1078
0 0 0 0 0 0 0 0 0 0 0 0 0 0 0 0 0 0 0 0 0 0 0 9 30 24 23 55 36 70 41 44 41 79 111 112 137 282 454 533 696 910 1170 1462 1653 1929 2112 2218 2235 2166 2064 2003 1938 1900 1843 1655 1035 599 579 924 1016 962 1071
0 0 0 0 0 0 0 0 0 0 0 0 0 0 0 0 0 0 0 0 0 0 12 0 0 0 0 0 0 0 16 66 158 77 199 212 328 313 483 582 881 1000 1236 1521 1704 2045 2206 2292 2241 2130 2052 1987 1922 1875 1814 1643 1195 924 684 630 1051 1002 1028
0 0 0 0 0 0 0 0 0 0 0 0 0 0 0 0 0 0 0 0 0 0 5 0 0 0 0 0 0 0 109 245 280 303 307 418 512 518 588 794 1059 1144 1342 1629 1856 2096 2285 2367 2294 2141 2044 1990 1940 1886 1790 1637 1137 1048 838 753 960 1048 1017
0 0 0 0 0 0 0 0 0 0 0 0 0 0 0 0 0 0 0 0 0 0 0 0 0 0 0 0 0 0 160 248 318 424 526 612 749 719 756 921 1210 1300 1444 1830 2024 2167 2292 2386 2357 2236 2105 2050 2006 1934 1834 1651 1472 1055 906 1130 1088 1105 1037
0 0 0 0 0 0 0 0 0 0 0 0 0 0 0 0 0 0 0 0 0 3 0 0 0 0 0 0 0 0 114 212 370 515 685 718 814 928 925 970 1223 1388 1523 1980 2235 2283 2333 2379 2413 2325 2225 2126 2058 1996 1904 1795 1692 1532 1180 1124 1171 1099 1078
0 0 0 0 0 0 0 0 0 0 0 0 0 0 0 0 0 0 0 0 0 0 0 0 0 0 0 0 0 0 0 87 166 385 629 1054 818 887 1005 1020 1166 1409 1518 1828 2268 2431 2394 2386 2394 2355 2276 2194 2133 2089 2046 1985 1913 1760 1449 1227 1312 1150 1086
0 0 0 0 0 0 1 0 0 0 0 0 0 0 0 0 0 0 0 0 0 0 0 0 0 0 0 0 0 0 0 0 0 369 791 982 764 735 828 1010 1150 1362 1557 1617 1956 2370 2483 2456 2436 2370 2322 2281 2228 2229 2180 2123 2009 1660 1560 1444 1352 1271 1156
2 9 3 0 2 12 12 18 23 12 2 0 0 0 1 0 0 0 14 34 0 0 0 0 0 12 0 0 0 0 0 0 13 942 1148 1048 955 938 847 844 1021 1249 1501 1609 1662 1975 2372 2552 2574 2533 2494 2426 2402 2389 2352 2235 1984 1712 1658 1581 1362 1359 1187
26 36 23 13 10 21 24 24 28 18 10 0 1 0 1 0 0 1 9 2 0 0 0 0 0 0 0 0 0 0 0 0 72 783 1400 1276 1185 1266 1093 1020 946 978 1127 1448 1640 1692 1912 2299 2525 2577 2556 2523 2449 2392 2273 2066 1890 1722 1749 1659 1446 1342 1177
37 48 35 27 28 35 26 30 26 16 11 10 11 3 0 0 1 113 35 48 0 0 0 0 0 1 0 2 0 0 0 0 31 328 956 1628 1722 1868 1590 1191 1160 1082 1031 1124 1450 1637 1716 1884 2156 2316 2360 2325 2248 2145 2041 1894 1752 1707 1696 1580 1296 1322 1180
29 50 38 27 33 43 55 43 16 16 31 16 30 20 6 34 44 98 103 60 11 14 4 4 5 11 25 18 0 0 0 0 2 240 891 1488 1906 2205 2236 1768 1427 1385 1293 1198 1317 1533 1601 1721 1864 2037 2137 2120 2100 2032 2018 1966 1912 1700 1611 1434 1181 1208 1164
16 43 42 39 41 50 47 18 17 18 22 34 57 46 62 28 246 58 61 84 160 168 37 4 26 41 42 42 56 54 20 10 10 41 428 1171 1743 2135 2462 2489 2060 1747 1618 1579 1528 1454 1558 1606 1641 1774 1881 1938 1959 2021 2111 2122 2046 1805 1502 1178 986 1056 1069
7 10 27 36 43 35 29 114 90 16 15 34 38 19 22 13 85 168 169 206 208 246 56 15 3 11 13 215 279 214 45 4 50 215 471 580 804 1214 1796 2405 2703 2522 2188 2052 1951 1888 1784 1697 1638 1632 1675 1795 1934 2032 2068 2067 2004 1864 1494 1014 759 754 796
20 18 23 38 54 24 166 102 27 11 24 9 37 31 15 15 46 207 218 248 269 233 188 123 66 44 65 10 26 0 0 0 0 4 105 593 904 1198 1595 1772 2042 2528 2645 2461 2303 2183 2048 1945 1890 1857 1860 1874 1955 2004 2006 1960 1840 1671 1332 1200 1003 833 709
52 39 43 40 43 35 89 26 37 46 59 41 61 55 28 28 170 37 177 246 198 190 177 144 75 1 32 38 31 0 18 2 6 18 23 24 44 374 1244 1938 2148 2251 2423 2420 2302 2167 2049 1974 1941 1938 1980 1989 1968 1924 1829 1712 1571 1481 1231 1260 790 775 693
18 44 43 44 29 40 34 42 155 21 10 12 15 33 30 38 50 292 16 22 13 12 16 19 20 88 1 60 34 71 68 7 6 0 6 15 18 1 112 1053 1770 2122 2277 2326 2300 2262 2223 2131 2114 2174 2113 2018 1891 1799 1607 1444 1433 1538 1524 1356 841 699 682
2 6 9 8 10 33 83 268 122 130 138 95 25 22 224 70 254 200 55 31 19 10 19 23 22 40 62 28 9 0 3 15 6 0 16 129 76 49 315 817 1113 1630 2070 2205 2275 2416 2460 2425 2311 2262 2133 1986 1709 1602 1498 1447 1555 1428 1341 1244 1113 979 917
7 0 0 0 10 362 238 110 140 127 198 140 6 20 47 35 155 242 13 20 25 29 38 40 37 19 6 0 0 0 2 60 55 0 675 1350 1680 2057 2579 2861 2620 2185 1972 2119 2154 2198 2255 2347 2327 2148 2000 1918 1751 1619 1582 1656 1625 1501 1414 1312 1353 1238 1075
16 1 0 0 128 308 265 265 66 133 147 68 127 26 264 133 59 239 18 24 21 20 27 32 42 28 10 7 0 156 427 697 815 680 1164 1605 2146 2722 3153 3396 3422 3139 2670 2450 2405 2334 2279 2283 2286 2228 2060 1623 1500 1392 1261 1450 1649 1458 1432 1462 1549 1475 1202
33 30 4 14 197 374 275 276 279 121 57 194 200 208 228 232 231 57 42 27 109 141 46 50 39 36 14 286 448 690 989 1230 1658 1700 2028 2350 2561 3092 3350 3662 3641 3542 3181 2974 2795 2624 2490 2317 2230 2035 1392 952 1111 1184 848 807 1272 1412 1664 1746 1696 1538 1182
116 4 15 0 0 138 332 335 258 389 374 251 29 78 197 168 240 145 184 152 147 105 106 107 102 80 64 63 417 948 1403 1952 2026 2129 2251 2397 2624 2982 3208 3426 3565 3560 3520 3362 3203 3092 2885 2722 2601 2099 1307 1028 997 956 832 1310 1490 1610 1730 1726 1614 1286 1110
0 2 0 47 383 315 368 405 486 553 692 531 704 25 85 127 134 197 192 166 177 163 161 153 124 86 63 588 681 808 1120 1861 2157 2049 2076 2371 2565 2823 3038 3186 3304 3312 3344 3566 3542 3413 3300 3121 2683 1931 1330 1056 1057 1038 1396 1789 1663 1728 1645 1504 1203 1189 1464
345 32 81 144 341 362 347 388 442 460 362 279 273 141 42 84 124 130 132 127 126 102 93 544 537 512 688 1036 1404 1427 1352 1523 1891 1916 2164 2596 2649 2704 2898 3016 3126 3085 3029 3091 3294 3374 3253 3165 2736 1973 1357 1278 1432 1443 873 844 1285 1492 1301 952 946 1222 1501
0 1 39 195 275 354 262 336 353 393 390 362 274 25 30 21 12 20 18 52 255 116 680 774 1012 1051 1189 1655 1692 1614 1728 1740 1739 1889 2235 2650 2685 2712 2757 2853 2938 2984 2956 2951 2931 2836 2722 2425 2105 1498 1270 1311 1216 725 557 747 1291 1352 1382 1450 1514 1768 1906
120 38 1 300 303 352 373 104 14 342 352 382 360 248 29 49 37 26 100 524 692 850 924 1040 1234 1470 1553 1662 1613 1597 1697 1755 1721 1694 1865 2340 2566 2551 2596 2592 2757 2884 2950 2981 2915 2586 2086 1579 1356 1259 1209 912 623 111 612 927 1324 1339 831 338 1639 2149 2252
202 305 236 304 339 358 388 397 409 383 45 50 37 233 322 124 4 0 4 628 920 1017 1019 996 1136 1323 1431 1291 1364 1380 1453 1547 1552 1575 1730 1928 2071 2200 2402 2454 2613 2778 2882 2931 2770 2221 1642 1304 1340 1294 1142 1129 1068 1102 694 900 427 532 1115 1539 1610 1787 1833
515 533 691 535 404 432 434 465 559 496 261 47 28 0 0 10 63 89 14 0 458 1140 1096 860 869 1042 1346 1294 1191 1174 1323 1365 1409 1417 1423 1640 1963 2233 2380 2517 2738 2912 2876 2690 2186 1506 1237 1417 1434 1438 1535 1373 1187 1057 169 238 1301 1553 1569 1816 1831 1870 1905
304 303 311 364 408 468 444 471 455 458 425 354 258 0 6 0 0 4 0 289 175 583 899 1312 854 782 1115 1236 1114 1076 1142 1162 1098 1147 1250 1314 1537 1890 2133 2338 2325 2052 2136 1953 1357 1093 986 1056 1196 1045 844 784 701 44 22 0 105 737 1284 1690 1739 1911 2098
340 346 278 460 175 12 159 187 200 77 360 379 405 286 60 18 0 0 0 0 0 450 3 23 1148 830 794 1052 1119 1069 1089 1167 1118 1021 970 1103 1231 1378 1476 1533 1438 1330 1348 1242 968 947 890 687 510 0 0 42 45 0 0 12 49 382 930 1201 1272 1517 1483
441 360 436 120 19 57 44 9 47 2 0 0 0 0 0 0 0 0 0 0 9 8 157 122 0 898 853 979 982 960 1002 1062 1140 1000 971 939 920 1030 1099 1093 1081 1099 1068 1074 930 752 801 684 0 0 254 417 204 0 47 216 358 490 529 362 390 379 381
115 153 83 86 58 5 6 0 0 0 0 0 16 20 21 114 83 0 1 14 0 0 0 0 0 175 1033 1000 968 853 980 1029 1068 1016 953 934 917 914 915 954 1132 1030 996 1063 1076 855 677 604 509 361 0 2 0 99 295 381 238 296 394 356 322 358 716
Wind_Speed
nan nan nan nan nan nan nan nan nan nan nan nan nan nan nan nan nan nan nan nan nan nan nan nan nan nan nan nan nan nan nan nan nan nan nan 26 26 27 25 22 19 22 22 22 22 22 21 23 25 26 29 30 31 30 29 28 27 26 25 24 23 24 24
nan nan nan nan nan nan nan nan nan nan nan nan nan nan nan nan nan nan nan nan nan nan nan nan nan nan nan nan nan nan nan nan nan nan nan nan 28 29 29 26 27 31 31 28 24 23 24 25 26 27 28 29 31 32 32 32 29 28 25 25 25 25 26
nan nan nan nan nan nan nan nan nan nan nan nan nan nan nan nan nan nan nan nan nan nan nan nan nan nan nan nan nan nan nan nan nan nan nan nan 28 28 27 26 29 32 32 29 27 26 25 26 27 28 28 29 30 30 32 33 32 31 29 27 27 26 26
nan nan nan nan nan nan nan nan nan nan nan nan nan nan nan nan nan nan nan nan nan nan nan nan nan nan nan nan nan nan nan nan nan nan nan nan nan 30 31 31 33 35 33 31 29 26 26 26 26 26 28 28 30 31 32 31 29 29 28 29 30 31 29
nan nan nan nan nan nan nan nan nan nan nan nan nan nan nan nan nan nan nan nan nan nan nan nan nan nan nan nan nan nan nan nan nan nan nan nan 33 33 33 35 35 34 32 29 26 24 24 25 25 25 25 27 29 31 31 32 32 31 30 30 32 32 32
nan nan nan nan nan nan nan nan nan nan nan nan nan nan nan nan nan nan nan nan nan nan nan nan nan nan nan nan nan nan nan nan nan nan nan nan 33 33 35 34 33 31 29 29 26 23 22 23 23 25 25 26 29 30 31 32 31 30 31 31 32 33 33
nan nan nan nan nan nan nan nan nan nan nan nan nan nan nan nan nan nan nan nan nan nan nan nan nan nan nan nan nan nan nan nan nan nan 33 33 36 37 36 35 33 31 30 29 28 27 26 25 25 26 27 28 29 31 32 32 33 32 32 32 32 33 33
nan nan nan nan nan nan nan nan nan nan nan nan nan nan nan nan nan nan nan nan nan nan nan nan nan nan nan nan nan nan nan nan 29 nan 32 34 33 34 37 37 34 30 27 25 24 24 23 22 22 25 27 28 29 30 32 33 33 34 34 33 32 32 32
nan nan nan nan nan nan nan nan nan nan nan nan nan nan nan nan nan nan nan nan nan nan nan nan nan nan nan nan nan nan 33 30 32 32 33 34 37 38 37 35 33 27 23 22 22 24 25 24 24 26 27 29 30 30 31 32 33 34 34 34 32 31 32
nan nan nan nan nan nan nan nan nan nan nan nan nan nan nan nan nan nan nan nan nan nan nan nan nan nan nan nan nan nan 36 35 34 32 33 34 37 38 35 33 33 29 22 20 21 23 24 25 27 28 29 30 30 30 30 31 32 33 33 33 32 32 32
nan nan nan nan nan nan nan nan nan nan nan nan nan nan nan nan nan nan nan nan nan nan nan nan nan nan nan nan nan nan 36 35 35 35 36 36 36 36 34 34 33 26 21 21 23 24 26 27 27 29 31 32 31 31 31 30 31 32 32 32 33 34 32
nan nan nan nan nan nan nan nan nan nan nan nan nan nan nan nan nan nan nan nan nan nan nan nan nan nan nan nan nan nan nan nan 39 39 38 39 37 34 30 29 29 28 27 27 26 26 27 27 29 30 31 33 34 33 32 31 31 31 32 33 34 34 33
nan nan nan nan nan nan nan nan nan nan nan nan nan nan nan nan nan nan nan nan nan nan nan nan nan nan nan nan nan nan nan nan nan 41 40 39 38 33 29 29 31 32 32 31 31 31 30 32 34 34 33 32 31 31 31 32 31 31 33 35 34 33 32
nan nan nan nan nan nan nan nan nan nan nan nan nan nan nan nan nan nan nan nan nan nan nan nan nan nan nan nan nan nan nan nan nan 43 41 39 36 34 32 35 37 38 37 35 34 34 34 36 38 37 35 34 34 34 33 33 32 33 35 34 34 32 30
nan nan nan nan nan nan nan nan nan nan nan nan nan nan nan nan nan nan nan nan nan nan nan nan nan nan nan nan nan nan nan nan nan 45 45 42 40 36 33 34 36 37 36 36 35 35 36 39 41 40 39 37 36 35 34 34 34 35 36 35 33 31 28
nan nan nan nan nan nan nan nan nan nan nan nan nan nan nan nan nan 35 nan nan nan nan nan nan nan nan nan nan nan nan nan nan nan 45 45 44 40 36 33 34 37 37 37 38 38 38 37 38 40 40 38 37 37 36 35 35 34 36 36 34 32 30 29
nan nan nan nan nan nan nan nan nan nan nan nan nan nan nan nan nan nan 38 nan nan nan nan nan nan nan nan nan nan nan nan nan nan 45 45 44 41 37 37 39 41 43 41 38 39 40 39 40 41 40 41 40 38 37 36 35 36 37 36 35 33 31 30
nan nan nan nan nan nan nan nan nan nan nan nan nan nan nan nan 37 nan nan nan 37 37 nan nan nan nan nan nan nan nan nan nan nan nan 44 42 39 38 39 42 46 45 39 36 37 40 41 42 44 43 42 41 39 38 38 37 38 37 38 36 34 31 30
nan nan nan nan nan nan nan 39 nan nan nan nan nan nan nan nan nan 47 44 40 37 37 nan nan nan nan nan 40 44 42 nan nan nan 45 43 42 40 42 44 45 46 44 41 41 42 40 39 42 42 42 40 39 40 39 38 38 37 39 38 37 34 33 33
nan nan nan nan nan nan 44 45 nan nan nan nan nan nan nan nan nan 43 44 41 43 47 48 44 nan nan nan nan nan nan nan nan nan nan 41 42 46 47 47 48 46 45 46 46 46 43 43 45 44 44 43 42 43 40 39 40 39 39 39 39 37 36 36
nan nan nan nan nan nan nan nan nan nan nan nan nan nan nan nan 41 nan 46 47 47 49 51 52 nan nan nan nan nan nan nan nan nan nan nan nan nan 48 47 47 44 43 43 43 42 44 47 47 47 46 45 44 44 45 42 41 42 41 45 44 39 37 30
nan nan nan nan nan nan nan nan 45 nan nan nan nan nan nan nan nan 41 nan nan nan nan nan nan nan nan nan nan nan nan nan nan nan nan nan nan nan nan 45 38 37 40 41 41 43 47 48 47 47 48 49 48 48 48 48 46 45 42 43 41 37 35 29
nan nan nan nan nan nan nan 47 50 51 49 nan nan nan 46 nan 44 42 nan nan nan nan nan nan nan nan nan nan nan nan nan nan nan nan nan 44 nan nan 44 43 40 40 41 44 44 44 45 45 46 50 52 54 56 56 53 47 44 44 37 36 33 31 28
nan nan nan nan nan 54 57 55 53 53 52 54 nan nan nan nan 43 43 nan nan nan nan nan nan nan nan nan nan nan nan nan nan nan nan 50 49 50 49 49 47 46 43 42 44 43 44 44 44 48 50 52 58 62 62 56 48 42 38 34 31 29 28 28
nan nan nan nan 56 54 57 60 nan 57 54 nan 55 nan 47 46 nan 50 nan nan nan nan nan nan nan nan nan nan nan 44 46 50 52 53 53 56 59 60 56 52 47 45 42 43 44 44 44 48 52 51 47 47 55 51 43 40 38 33 30 29 29 30 30
nan nan nan nan 54 54 57 65 63 56 nan 55 53 48 51 52 54 nan nan nan 55 59 nan nan nan nan nan 54 56 60 58 57 56 58 59 61 60 58 53 48 43 43 44 47 48 48 48 54 56 55 53 49 46 43 34 25 23 26 30 29 29 30 30
52 nan nan nan nan 57 66 59 60 66 58 51 nan nan 54 55 57 58 58 58 57 61 61 60 59 nan nan nan 63 62 63 64 62 60 58 57 57 54 49 43 39 43 43 44 45 45 45 49 51 53 50 45 44 37 27 13 14 25 29 29 29 28 27
nan nan nan nan 55 52 59 63 61 59 58 53 54 nan nan 58 61 62 63 61 59 60 63 61 60 nan nan 57 57 60 59 62 62 62 62 59 53 49 43 41 42 45 44 44 46 45 47 47 48 51 50 46 42 31 23 19 21 23 25 26 24 22 25
52 nan nan 50 50 53 55 54 53 58 61 60 58 60 nan nan 62 61 66 64 61 60 nan 61 58 59 57 55 52 56 54 55 56 56 52 48 45 43 43 43 42 43 44 43 42 43 42 45 46 48 47 48 42 31 28 26 22 22 23 22 19 26 34
nan nan nan 48 49 53 56 53 50 54 57 57 58 nan nan nan nan nan nan nan 58 55 53 56 55 54 52 52 49 50 50 49 46 44 41 38 37 38 39 38 39 41 41 41 42 43 40 41 44 45 46 44 43 35 42 38 36 36 30 22 23 34 40
48 nan nan 55 54 49 51 53 nan 51 52 52 51 54 nan nan nan nan 53 52 51 46 48 50 50 47 45 46 42 42 42 39 36 35 34 32 32 33 36 35 38 40 40 41 43 43 42 38 43 45 47 46 44 41 36 30 38 35 35 21 34 45 47
47 44 42 46 51 52 50 51 49 49 nan nan nan 49 51 54 nan nan nan 43 47 49 55 49 43 39 36 39 35 35 34 33 32 32 33 31 33 33 34 35 36 38 39 42 43 43 42 40 41 43 44 46 45 42 40 26 36 38 40 46 56 58 59
40 44 43 42 46 49 47 44 44 45 48 nan nan nan nan nan nan nan nan nan 46 48 46 39 36 35 32 34 34 35 34 34 34 34 34 34 35 35 36 36 37 39 39 40 41 43 42 39 41 42 43 43 43 45 42 37 43 48 53 57 61 62 57
37 37 36 40 45 37 35 37 38 40 40 44 44 nan nan nan nan nan nan 39 42 43 40 36 37 36 33 33 35 36 33 33 33 33 34 35 36 35 34 36 37 38 38 41 43 45 43 39 39 40 42 43 45 nan nan nan 45 49 54 59 58 54 48
35 36 42 40 40 nan 34 36 37 nan 35 37 40 41 nan nan nan nan nan nan nan 35 nan nan 32 32 32 30 31 33 31 30 31 32 34 35 35 35 35 37 38 40 41 41 43 44 44 44 43 nan nan nan nan nan nan nan nan 47 52 55 50 45 43
46 45 43 41 nan nan nan nan nan nan nan nan nan nan nan nan nan nan nan nan nan nan 26 28 nan 25 28 29 30 30 29 29 31 32 32 34 36 37 37 39 40 41 41 42 44 46 44 43 nan nan 47 45 46 nan nan 46 47 49 51 52 49 47 49
44 43 nan nan nan nan nan nan nan nan nan nan nan nan nan 36 nan nan nan nan nan nan nan nan nan 27 29 28 29 32 34 32 32 35 36 36 36 37 37 38 40 42 43 43 44 45 45 44 45 46 nan nan nan nan 44 44 47 49 50 53 55 56 57
Wind_Direction
nan nan nan nan nan nan nan nan nan nan nan nan nan nan nan nan nan nan nan nan nan nan nan nan nan nan nan nan nan nan nan nan nan nan nan 331 331 334 339 344 344 340 332 327 322 316 308 306 308 313 317 317 317 312 314 317 317 314 311 307 308 308 308
nan nan nan nan nan nan nan nan nan nan nan nan nan nan nan nan nan nan nan nan nan nan nan nan nan nan nan nan nan nan nan nan nan nan nan nan 336 341 346 348 344 341 337 332 324 317 313 313 314 314 319 316 313 313 315 317 317 318 314 309 309 309 309
nan nan nan nan nan nan nan nan nan nan nan nan nan nan nan nan nan nan nan nan nan nan nan nan nan nan nan nan nan nan nan nan nan nan nan nan 332 331 336 335 332 331 329 326 323 320 316 314 313 316 315 312 310 310 313 317 320 320 317 313 311 310 311
nan nan nan nan nan nan nan nan nan nan nan nan nan nan nan nan nan nan nan nan nan nan nan nan nan nan nan nan nan nan nan nan nan nan nan nan nan 324 329 330 328 328 326 325 325 320 313 310 311 312 314 310 314 313 313 314 313 311 310 311 311 313 316
nan nan nan nan nan nan nan nan nan nan nan nan nan nan nan nan nan nan nan nan nan nan nan nan nan nan nan nan nan nan nan nan nan nan nan nan 320 321 325 327 326 324 323 324 325 323 318 311 307 306 310 316 315 310 312 313 315 315 315 313 312 313 312
nan nan nan nan nan nan nan nan nan nan nan nan nan nan nan nan nan nan nan nan nan nan nan nan nan nan nan nan nan nan nan nan nan nan nan nan 316 320 322 323 323 322 322 325 325 319 307 306 309 314 313 309 309 312 313 312 312 314 315 313 313 311 310
nan nan nan nan nan nan nan nan nan nan nan nan nan nan nan nan nan nan nan nan nan nan nan nan nan nan nan nan nan nan nan nan nan nan 318 316 315 318 320 320 321 320 320 322 322 322 323 325 324 320 314 314 315 314 311 311 314 315 314 312 309 307 306
nan nan nan nan nan nan nan nan nan nan nan nan nan nan nan nan nan nan nan nan nan nan nan nan nan nan nan nan nan nan nan nan 305 nan 304 306 305 308 315 318 318 318 318 317 318 323 323 321 317 320 321 318 314 312 312 310 313 313 310 307 305 304 305
nan nan nan nan nan nan nan nan nan nan nan nan nan nan nan nan nan nan nan nan nan nan nan nan nan nan nan nan nan nan 291 291 296 301 305 308 310 308 307 311 312 310 311 317 324 327 327 326 324 322 320 320 317 314 310 310 310 308 306 303 304 305 304
nan nan nan nan nan nan nan nan nan nan nan nan nan nan nan nan nan nan nan nan nan nan nan nan nan nan nan nan nan nan 288 294 297 299 303 308 308 311 310 307 308 316 321 321 321 326 326 324 323 322 322 321 318 313 312 308 305 305 305 304 306 303 302
nan nan nan nan nan nan nan nan nan nan nan nan nan nan nan nan nan nan nan nan nan nan nan nan nan nan nan nan nan nan 288 295 298 300 306 312 313 310 306 306 311 308 308 325 329 327 326 324 323 322 322 322 318 314 312 308 304 304 303 304 303 301 301
nan nan nan nan nan nan nan nan nan nan nan nan nan nan nan nan nan nan nan nan nan nan nan nan nan nan nan nan nan nan nan nan 299 301 306 310 311 311 307 302 306 316 325 325 324 325 323 324 325 323 322 321 319 316 313 308 304 303 301 301 300 299 301
nan nan nan nan nan nan nan nan nan nan nan nan nan nan nan nan nan nan nan nan nan nan nan nan nan nan nan nan nan nan nan nan nan 294 303 307 312 319 321 322 320 317 317 319 321 321 323 323 325 324 321 319 314 311 308 305 303 304 298 298 298 301 305
nan nan nan nan nan nan nan nan nan nan nan nan nan nan nan nan nan nan nan nan nan nan nan nan nan nan nan nan nan nan nan nan nan 297 302 307 315 317 318 318 316 311 312 315 319 320 319 321 321 319 319 319 317 315 311 307 305 301 296 298 302 307 309
nan nan nan nan nan nan nan nan nan nan nan nan nan nan nan nan nan nan nan nan nan nan nan nan nan nan nan nan nan nan nan nan nan 297 303 308 313 312 310 311 315 312 309 311 314 317 319 319 319 318 319 318 316 314 311 309 306 302 299 302 307 308 307
nan nan nan nan nan nan nan nan nan nan nan nan nan nan nan nan nan 237 nan nan nan nan nan nan nan nan nan nan nan nan nan nan nan 299 300 302 305 305 307 314 318 316 312 309 311 316 317 317 317 316 314 313 311 312 308 306 303 299 300 303 305 305 303
nan nan nan nan nan nan nan nan nan nan nan nan nan nan nan nan nan nan 254 nan nan nan nan nan nan nan nan nan nan nan nan nan nan 293 295 295 297 303 309 313 316 315 312 311 313 314 313 313 314 317 316 311 311 308 304 303 296 296 298 299 298 300 300
nan nan nan nan nan nan nan nan nan nan nan nan nan nan nan nan 232 nan nan nan 247 248 nan nan nan nan nan nan nan nan nan nan nan nan 286 290 297 303 306 310 312 311 306 303 308 310 311 314 316 316 312 311 308 302 299 295 296 295 293 293 296 297 294
nan nan nan nan nan nan nan 217 nan nan nan nan nan nan nan nan nan 234 240 247 248 250 nan nan nan nan nan 265 272 271 nan nan nan 283 286 292 298 303 304 304 303 299 296 298 301 301 305 310 307 301 300 295 291 291 291 291 289 290 292 292 289 288 287
nan nan nan nan nan nan 223 224 nan nan nan nan nan nan nan nan nan 237 235 235 250 253 253 256 nan nan nan nan nan nan nan nan nan nan 288 293 293 293 297 301 302 298 295 298 302 306 306 304 303 302 300 294 292 291 288 289 289 290 289 286 283 279 278
nan nan nan nan nan nan nan nan nan nan nan nan nan nan nan nan 224 nan 245 241 238 241 250 258 nan nan nan nan nan nan nan nan nan nan nan nan nan 294 298 300 302 301 300 300 304 301 300 302 302 300 294 292 290 287 286 282 280 277 277 275 273 276 280
nan nan nan nan nan nan nan nan 222 nan nan nan nan nan nan nan nan 233 nan nan nan nan nan nan nan nan nan nan nan nan nan nan nan nan nan nan nan nan 296 294 292 294 296 296 294 298 300 301 301 296 295 295 293 290 283 279 278 279 282 283 281 289 293
nan nan nan nan nan nan nan 223 221 221 227 nan nan nan 230 nan 225 227 nan nan nan nan nan nan nan nan nan nan nan nan nan nan nan nan nan 286 nan nan 290 293 294 294 295 297 295 292 293 297 296 297 299 300 295 288 282 277 272 273 276 280 282 286 292
nan nan nan nan nan 223 219 217 217 219 222 226 nan nan nan nan 226 234 nan nan nan nan nan nan nan nan nan nan nan nan nan nan nan nan 280 276 277 279 280 283 289 289 285 285 288 293 299 300 297 298 299 298 291 284 278 273 275 280 279 279 286 289 292
nan nan nan nan 219 217 218 217 nan 213 225 nan 231 nan 239 238 nan 244 nan nan nan nan nan nan nan nan nan nan nan 258 264 265 265 269 270 275 279 283 281 280 280 281 283 286 286 282 279 277 274 272 275 280 275 264 265 270 267 267 273 276 283 288 292
nan nan nan nan 225 224 220 211 214 217 nan 231 241 237 242 243 245 nan nan nan 252 252 nan nan nan nan nan 260 259 257 258 262 264 266 270 272 272 272 272 271 274 277 279 282 284 285 286 287 288 291 298 303 292 276 264 247 252 268 270 275 283 288 291
213 nan nan nan nan 226 218 216 222 222 230 234 nan nan 241 245 248 250 250 253 256 257 256 258 261 nan nan nan 259 260 262 265 266 268 271 273 273 271 272 272 276 280 278 278 276 275 276 278 284 292 301 310 308 291 261 247 273 279 281 279 283 288 291
nan nan nan nan 227 227 223 231 233 227 228 235 239 nan nan 244 248 250 251 250 254 256 257 255 253 nan nan 257 258 260 262 266 266 266 268 270 269 267 266 271 276 275 274 276 277 278 280 282 288 297 305 315 318 291 251 246 275 285 281 279 279 291 300
220 nan nan 222 227 230 233 239 239 235 231 230 231 234 nan nan 243 246 249 247 249 253 nan 252 253 254 253 255 255 260 263 266 266 265 265 267 269 271 273 275 277 278 281 282 280 279 281 283 288 294 301 313 317 295 252 249 275 290 293 283 285 305 311
nan nan nan 230 233 237 242 247 250 246 240 237 236 nan nan nan nan nan nan nan 244 245 249 252 253 260 261 257 256 260 262 265 264 265 267 269 271 274 277 277 279 280 280 282 283 283 283 284 288 292 295 308 316 286 247 248 263 270 259 250 277 304 309
246 nan nan 236 239 242 246 252 nan 254 252 249 244 239 nan nan nan nan 239 249 254 253 251 253 256 258 261 261 259 260 262 264 267 270 275 278 279 282 284 284 285 285 285 286 287 286 284 284 288 293 294 298 303 290 262 244 265 268 273 281 291 301 305
251 259 252 247 248 250 249 249 251 252 nan nan nan 252 250 242 nan nan nan 244 253 258 256 251 249 249 255 262 261 262 264 267 268 270 271 273 273 274 277 280 281 282 284 288 288 286 287 289 290 295 296 297 302 300 285 269 267 276 290 294 297 299 300
245 247 250 254 254 251 250 252 254 255 254 nan nan nan nan nan nan nan nan nan 241 246 255 262 260 259 261 269 272 272 271 271 271 270 270 270 270 272 274 275 279 283 285 285 287 287 289 291 292 293 295 296 299 297 293 292 284 283 285 288 288 291 295
254 257 257 256 254 248 245 246 252 259 261 262 263 nan nan nan nan nan nan 229 237 245 249 251 259 267 271 272 275 276 276 276 276 273 271 272 273 273 273 274 277 279 280 285 288 288 290 290 291 294 296 294 293 nan nan nan 291 288 286 286 286 288 292
250 248 253 249 251 nan 255 254 250 nan 257 266 268 270 nan nan nan nan nan nan nan 240 nan nan 262 270 275 278 276 276 278 281 280 280 280 280 279 279 280 280 280 284 287 289 290 292 294 294 294 nan nan nan nan nan nan nan nan 286 284 282 281 286 289
243 248 255 253 nan nan nan nan nan nan nan nan nan nan nan nan nan nan nan nan nan nan 249 250 nan 272 281 283 283 285 282 280 280 281 280 280 281 284 285 288 289 290 291 293 294 295 292 291 nan nan 292 291 290 nan nan 287 288 286 283 284 287 289 289
252 251 nan nan nan nan nan nan nan nan nan nan nan nan nan 263 nan nan nan nan nan nan nan nan nan 268 283 283 282 284 285 282 281 282 282 281 281 283 287 289 293 294 294 292 288 286 285 286 287 288 nan nan nan nan 287 290 286 284 283 284 285 285 286